This demonstration page uses our WeatherBlox Daily Observations layout. Learn more.

Left ArrowRight Arrow

38.83388, -104.82136

Hourly Observations for May 19, 2018

Temp ( °F °C ) Dew Point ( °F °C ) Humidity (%) Winds ( mph kmh ) Pressure ( in mb ) Visibility ( mi km ) Precip ( " mm )
12:58 am 00:58 Mostly Cloudy 49 9.6 42 5.6 76 76 NNW 13 20 29.48 998 10 16 0.00 0.00
1:58 am 01:58 Cloudy 50 10 39 3.9 66 66 N 18 30 29.47 998 10 16 0.00 0.00
2:58 am 02:58 Mostly Cloudy 51 10.3 40 4.3 67 67 NW 14 22 29.57 1001 10 16 0.00 0.00
3:33 am 03:33 Mostly Cloudy 48 9 41 5 76 76 NNW 15 24 29.60 1002 10 16 0.00 0.00
3:53 am 03:53 Mostly Cloudy 48 9 41 5 76 76 NW 16 26 29.60 1002 10 16 0.00 0.00
3:58 am 03:58 Mostly Cloudy 48 8.9 41 4.9 76 76 NNW 12 19 29.61 1003 10 16 0.00 0.00
4:12 am 04:12 Mostly Cloudy with Light Rain 48 9 41 5 76 76 NNW 12 19 29.63 1003 10 16 0.00 0.00
4:17 am 04:17 Mostly Cloudy with Light Rain 48 9 41 5 76 76 NW 14 22 29.63 1003 10 16 0.00 0.00
4:47 am 04:47 Mostly Cloudy with Light Rain 46 8 43 6 87 87 NNW 15 24 29.65 1004 10 16 0.00 0.00
4:52 am 04:52 Mostly Cloudy with Light Rain 46 8 41 5 82 82 NW 16 26 29.63 1003 10 16 0.00 0.00
4:57 am 04:57 Mostly Cloudy with Light Showers 46 8 41 5 82 82 NW 14 22 29.61 1003 10 16 0.00 0.00
4:58 am 04:58 Mostly Cloudy with Light Showers 47 8.3 41 5.2 81 81 NW 14 22 29.61 1003 10 16 0.00 0.00
5:18 am 05:18 Mostly Cloudy 46 8 41 5 82 82 NNW 16 26 29.60 1002 10 16 0.00 0.00
5:58 am 05:58 Mostly Cloudy 48 8.7 40 4.5 75 75 NNW 15 24 29.64 1004 10 16 0.00 0.00
6:58 am 06:58 Mostly Cloudy 49 9.6 39 4 68 68 Calm 29.63 1004 10 16 0.00 0.00
7:58 am 07:58 Mostly Cloudy 47 8.6 42 5.6 82 82 N 3 6 29.63 1004 10 16 0.00 0.00
8:58 am 08:58 Mostly Cloudy 49 9.4 42 5.3 76 76 NNE 6 9 29.64 1004 10 16 0.00 0.00
9:18 am 09:18 Mostly Cloudy 50 10 41 5 71 71 Calm 29.63 1003 10 16 0.00 0.00
9:58 am 09:58 Cloudy 49 9.5 41 5 74 74 NNE 5 7 29.64 1004 10 16 0.00 0.00
10:58 am 10:58 Cloudy 49 9.4 41 5.2 75 75 NNE 5 7 29.65 1004 10 16 0.00 0.00
11:58 am 11:58 Cloudy 50 9.8 41 5.2 73 73 NNE 3 6 29.69 1005 10 16 0.00 0.00
12:38 pm 12:38 Cloudy with Light Rain 50 10 41 5 71 71 N 5 7 29.69 1005 10 16 0.00 0.00
12:58 pm 12:58 Cloudy with Light Showers 49 9.7 42 5.6 76 76 N 10 17 29.69 1005 10 16 0.00 0.00
12:59 pm 12:59 Cloudy 50 10 43 6 76 76 N 7 11 29.69 1005 10 16 0.00 0.00
1:15 pm 13:15 Cloudy with Light Showers 48 9 43 6 82 82 N 10 17 29.71 1006 10 16 0.00 0.00
1:31 pm 13:31 Mostly Cloudy 48 9 41 5 76 76 NNW 8 13 29.70 1006 10 16 0.00 0.00
1:55 pm 13:55 Mostly Cloudy with Thunderstorms 48 9 39 4 71 71 NNW 14 22 29.69 1005 10 16 0.00 0.00
1:58 pm 13:58 Mostly Cloudy with Thunderstorms 48 9.1 40 4.4 73 73 NNW 15 24 29.68 1005 10 16 0.00 0.00
2:10 pm 14:10 Cloudy 48 9 39 4 71 71 N 18 30 29.69 1005 10 16 0.00 0.00
2:34 pm 14:34 Cloudy with Thunderstorms 46 8 39 4 76 76 NW 16 26 29.70 1006 10 16 0.00 0.00
2:49 pm 14:49 Cloudy 46 8 39 4 76 76 NNW 14 22 29.72 1006 10 16 0.00 0.00
2:58 pm 14:58 Cloudy 46 7.5 38 3.5 76 76 NNW 16 26 29.72 1006 10 16 0.00 0.00
3:01 pm 15:01 Cloudy with Light Showers 45 7 39 4 81 81 NNW 16 26 29.72 1006 10 16 0.00 0.00
3:16 pm 15:16 Cloudy with Rain and Nearby Thunderstorms 45 7 41 5 87 87 NNW 17 28 29.74 1007 5 8 0.00 0.00
3:58 pm 15:58 Cloudy with Rain 44 6.5 39 4 84 84 N 21 33 29.70 1006 10 16 0.07 1.78
4:16 pm 16:16 Mostly Cloudy 45 7 41 5 87 87 N 18 30 29.68 1005 10 16 0.00 0.00
4:58 pm 16:58 Mostly Cloudy 44 6.7 41 4.9 88 88 NNW 18 30 29.74 1007 10 16 0.00 0.00
5:06 pm 17:06 Mostly Cloudy with Light Rain 43 6 39 4 87 87 NNW 15 24 29.77 1008 10 16 0.00 0.00
5:58 pm 17:58 Mostly Cloudy with Light Showers 43 6.2 40 4.5 89 89 NNW 17 28 29.78 1008 10 16 0.01 0.25
6:51 pm 18:51 Mostly Cloudy with Light Rain 43 6 39 4 87 87 NNW 12 19 29.78 1008 10 16 0.00 0.00
6:58 pm 18:58 Mostly Cloudy with Light Rain 43 5.9 40 4.5 91 91 NNW 9 15 29.78 1008 10 16 0.00 0.00
7:44 pm 19:44 Mostly Cloudy 41 5 39 4 93 93 NW 12 19 29.80 1009 10 16 0.00 0.00
7:58 pm 19:58 Mostly Cloudy 41 5.1 39 4 93 93 NW 9 15 29.82 1010 10 16 0.02 0.51
8:38 pm 20:38 Mostly Cloudy 41 5 39 4 93 93 NNW 9 15 29.85 1011 10 16 0.00 0.00
8:48 pm 20:48 Mostly Cloudy 41 5 39 4 93 93 NNW 8 13 29.86 1011 10 16 0.00 0.00
8:53 pm 20:53 Mostly Cloudy 41 5 39 4 93 93 NNW 9 15 29.85 1011 10 16 0.00 0.00
8:58 pm 20:58 Mostly Cloudy 41 4.9 38 3.6 91 91 NNW 9 15 29.86 1011 10 16 0.00 0.00
9:13 pm 21:13 Mostly Cloudy 41 5 39 4 93 93 NNW 9 15 29.87 1012 10 16 0.00 0.00
9:18 pm 21:18 Mostly Cloudy 41 5 39 4 93 93 NNW 10 17 29.87 1012 10 16 0.00 0.00
9:23 pm 21:23 Mostly Cloudy 41 5 39 4 93 93 NNW 7 11 29.87 1012 10 16 0.00 0.00
9:58 pm 21:58 Mostly Cloudy 41 5 38 3.4 90 90 NNW 9 15 29.89 1012 10 16 0.00 0.00
10:13 pm 22:13 Mostly Cloudy 41 5 37 3 87 87 NNW 8 13 29.90 1013 10 16 0.00 0.00
10:28 pm 22:28 Mostly Cloudy 41 5 37 3 87 87 NNW 7 11 29.90 1013 10 16 0.00 0.00
10:33 pm 22:33 Cloudy 41 5 37 3 87 87 NNW 7 11 29.89 1012 10 16 0.00 0.00
10:58 pm 22:58 Cloudy 41 5.1 38 3.2 88 88 NW 7 11 29.89 1012 10 16 0.00 0.00
11:23 pm 23:23 Cloudy 41 5 39 4 93 93 NW 6 9 29.90 1013 10 16 0.00 0.00
11:28 pm 23:28 Cloudy with Drizzle 41 5 39 4 93 93 Calm 29.91 1013 7 11 0.00 0.00
11:43 pm 23:43 Cloudy with Light Showers 41 5 39 4 93 93 SE 5 7 29.91 1013 10 16 0.00 0.00
11:49 pm 23:49 Cloudy 41 5 39 4 93 93 Calm 29.91 1013 10 16 0.00 0.00
11:58 pm 23:58 Cloudy 41 5 40 4.4 96 96 Calm 29.90 1013 10 16 0.00 0.00

Powered by AerisWeather